Temperature
13 13 13 13 13 13 13 13 13 13 14 14 14 15 15 15 15 15 15 15 15 15 15 15 15 15 15 14 14 14 14 14 14 15 15 15 15 15 15 15 15 15 16
12 13 13 13 13 13 14 14 14 14 14 14 15 15 15 15 15 15 15 15 15 15 15 15 15 15 14 14 14 14 14 14 14 15 15 15 15 15 15 15 15 15 15
13 13 13 13 14 14 14 14 14 15 15 15 15 15 15 15 15 15 15 15 15 15 15 15 15 15 15 14 14 14 14 14 14 14 14 15 15 15 14 14 15 15 15
13 13 13 14 14 14 14 14 14 14 14 15 15 15 15 15 15 15 15 15 15 15 15 15 15 15 15 14 14 14 14 14 14 14 14 14 14 14 14 14 14 14 15
13 13 13 13 13 13 14 14 14 14 14 14 14 14 14 14 14 15 15 14 15 15 15 15 15 15 15 15 15 14 14 14 14 14 14 14 14 14 14 14 14 14 14
12 12 13 13 13 13 13 13 13 13 13 14 14 14 14 14 14 14 14 14 14 15 15 15 15 15 15 15 15 14 14 14 14 14 14 14 14 14 14 14 13 13 13
12 12 12 12 12 12 12 12 12 12 12 13 13 13 13 13 13 14 14 14 14 14 14 14 14 14 14 14 14 14 14 14 14 14 14 14 14 14 13 13 13 13 13
12 12 12 12 12 12 12 12 12 11 11 12 12 11 11 12 12 13 13 14 14 14 14 14 14 14 14 14 14 14 14 14 14 14 14 14 14 13 13 13 13 13 13
12 12 12 11 11 11 11 11 11 11 11 11 11 11 11 12 12 12 13 13 13 13 13 13 14 14 14 14 14 14 14 14 14 14 14 14 14 13 13 13 13 13 13
12 12 11 11 11 11 11 11 11 11 11 11 11 11 11 11 11 12 12 12 12 12 12 12 13 13 13 14 13 13 14 14 13 13 14 14 14 13 13 13 12 12 12
12 12 12 12 12 11 11 11 11 11 11 11 11 11 11 11 11 11 11 11 11 12 12 11 12 12 12 13 13 13 13 13 13 13 13 13 13 13 13 13 13 12 12
13 13 12 12 12 11 11 11 11 11 11 10 10 10 10 10 10 10 10 10 10 10 11 11 11 11 12 12 12 13 13 13 13 13 13 13 13 13 13 12 12 12 12
13 13 13 12 12 11 11 11 11 11 10 10 10 10 10 10 10 10 10 10 10 10 10 10 11 11 11 12 12 12 12 13 13 13 13 12 12 12 12 12 12 11 11
14 13 13 12 12 11 11 11 11 10 10 10 10 10 10 10 10 10 10 10 10 10 10 10 10 11 11 11 11 12 12 12 12 12 12 12 12 11 11 11 11 11 11
14 14 13 12 12 11 11 11 10 10 10 10 10 10 10 10 9 9 9 9 10 10 10 10 10 10 10 11 11 11 11 11 12 12 11 11 11 11 11 11 11 11 11
14 14 13 12 12 11 11 11 10 10 10 10 10 9 9 9 9 9 9 9 9 9 10 10 10 10 10 10 10 11 11 11 11 11 11 11 11 11 10 10 10 10 10
14 13 13 12 12 11 11 10 10 10 10 9 9 9 9 9 9 9 9 9 9 9 9 9 9 9 10 10 10 10 10 10 10 10 10 10 10 10 10 10 10 10 9
14 13 13 12 12 11 11 11 10 10 9 9 9 9 8 8 8 8 8 9 9 9 9 9 9 9 9 9 10 10 10 10 10 10 10 10 10 9 9 9 9 9 9
14 13 13 12 12 11 11 11 10 10 9 9 9 8 8 8 8 8 8 8 8 8 8 8 8 9 9 9 9 9 9 9 9 9 9 9 9 9 9 8 8 8 8
14 13 13 12 12 12 11 11 10 10 9 9 9 8 8 8 8 7 7 8 8 8 8 9 9 9 9 9 9 9 9 9 8 8 8 8 8 8 8 8 7 7 7
14 14 13 13 12 12 11 11 11 10 9 9 8 8 8 8 7 7 7 8 8 8 9 9 9 9 9 9 8 8 8 8 8 7 7 7 7 7 7 7 7 7 7
14 14 13 13 12 12 11 11 11 10 9 9 9 8 8 8 7 7 7 8 8 8 9 9 9 9 9 9 9 8 8 8 7 7 6 6 6 6 6 6 6 6 6
14 14 14 13 12 12 11 11 11 10 10 9 9 8 8 8 8 7 8 8 8 9 9 9 9 9 9 9 9 9 8 8 7 6 6 6 6 6 6 6 6 6 6
14 14 14 13 13 12 12 12 11 10 10 9 9 9 8 8 8 8 8 8 9 9 9 9 9 9 9 9 9 9 9 8 8 7 6 6 6 6 6 6 6 6 5
14 14 14 13 13 13 12 12 11 11 10 10 9 9 9 8 8 8 8 9 9 9 9 9 9 9 9 9 9 9 9 9 8 7 7 7 6 6 6 6 6 6 5
14 14 14 13 13 13 13 12 12 11 11 10 10 9 9 9 8 8 8 9 9 9 9 9 9 9 9 9 9 9 9 8 7 7 7 7 6 6 5 5 5 5 5
Wind_Speed
9 8 8 7 6 5 4 3 1 1 2 3 4 5 6 7 7 5 4 3 2 3 4 6 6 5 3 4 4 4 4 5 6 5 3 3 3 3 5 9 11 13 18
7 6 5 4 3 2 2 2 2 3 4 5 6 7 6 6 5 6 6 3 3 4 5 4 5 5 6 4 4 4 4 5 5 6 4 3 4 3 4 5 5 9 13
5 4 3 2 2 3 3 4 4 5 5 5 5 6 4 1 1 3 5 4 5 5 5 4 4 2 3 2 2 3 3 4 4 4 5 4 4 3 3 3 4 3 6
2 3 3 2 2 2 3 4 4 4 5 4 3 3 2 1 3 2 1 3 5 5 5 4 4 1 2 2 1 1 1 2 3 3 4 3 4 3 2 3 4 3 3
5 5 5 4 4 4 4 5 6 7 8 8 9 9 9 8 9 9 7 4 3 4 3 2 2 6 6 4 2 2 3 2 1 2 2 2 2 2 3 3 4 3 3
7 8 8 8 8 8 8 8 8 9 9 10 10 10 11 10 13 13 9 7 6 4 4 2 4 5 6 5 3 2 1 2 2 1 0 1 2 3 2 2 2 1 2
8 8 8 8 8 8 8 8 8 7 8 8 8 8 8 11 15 15 12 7 6 6 4 3 2 4 6 5 7 7 5 4 2 1 1 0 0 2 3 3 2 1 1
8 8 7 8 8 8 8 8 8 6 6 7 7 7 6 11 16 16 16 6 5 5 5 4 1 1 1 2 0 3 3 5 5 2 3 3 3 3 3 3 2 1 1
8 8 8 7 7 7 7 7 6 6 6 6 6 7 7 9 16 18 17 6 5 6 5 4 6 6 7 7 4 3 3 3 3 5 6 6 6 6 4 3 2 1 1
7 7 6 6 6 7 8 7 6 6 5 5 6 6 7 7 12 17 17 7 8 7 6 5 9 8 7 7 5 4 4 3 2 2 2 2 2 2 2 1 1 1 0
4 5 5 6 5 6 6 6 6 6 6 6 5 4 5 5 9 13 13 7 7 7 6 5 5 8 6 6 5 3 3 3 3 2 3 3 3 2 2 1 1 1 0
2 2 2 3 5 6 5 5 6 6 6 6 6 6 5 5 7 11 13 9 7 5 4 3 3 6 6 5 3 2 3 3 2 1 2 3 2 2 1 1 1 1 2
2 2 2 3 5 6 6 6 6 6 6 6 6 6 6 6 9 16 16 14 11 5 3 3 4 4 5 4 3 3 3 2 0 2 2 2 2 2 2 2 3 3 3
2 3 4 5 5 6 6 6 6 6 6 6 7 6 6 6 8 9 9 9 10 8 5 4 3 2 3 3 1 2 2 0 2 2 3 2 2 3 3 2 2 2 2
2 3 4 5 5 6 6 6 6 6 5 5 5 5 6 6 8 11 9 8 7 7 6 5 5 3 3 2 2 2 2 3 4 3 4 3 3 3 3 3 3 3 3
3 4 4 4 4 5 6 5 8 6 6 7 7 6 5 6 9 11 13 15 15 13 8 7 8 8 7 7 6 6 5 5 5 5 5 5 4 4 4 4 4 4 4
4 5 5 4 4 3 4 5 4 2 3 4 5 7 7 9 11 12 11 12 14 13 10 9 9 9 8 8 8 7 7 7 6 6 6 6 5 5 5 5 6 5 5
5 5 3 3 3 4 4 3 3 3 2 2 1 3 5 7 10 12 11 9 9 9 8 8 8 8 8 8 8 8 8 8 7 7 7 6 6 6 5 5 5 5 5
5 4 3 3 3 3 3 3 4 4 4 3 3 2 2 2 5 9 9 6 6 7 7 7 7 7 7 7 7 7 7 7 7 6 6 6 6 5 5 5 5 6 5
5 5 4 1 2 3 3 4 4 4 4 5 5 5 5 4 4 5 6 5 5 6 6 6 6 7 6 6 6 6 6 6 6 6 5 5 5 5 5 5 5 4 4
5 5 1 3 1 3 3 3 4 4 4 5 4 3 5 3 4 5 5 5 5 5 5 5 5 5 5 5 5 6 7 6 5 5 5 5 5 4 4 4 4 5 4
1 6 4 3 4 4 3 3 4 4 4 4 4 2 2 2 3 4 4 5 5 5 4 4 4 4 4 4 5 5 5 5 5 5 5 4 4 4 4 4 5 5 5
5 1 3 5 5 4 2 3 4 4 4 3 3 2 2 2 2 3 3 4 4 3 5 4 3 2 5 8 10 6 6 5 5 5 4 4 4 4 4 5 5 5 4
7 3 2 4 5 5 4 4 5 5 4 3 3 3 2 2 2 3 4 4 3 4 5 4 4 6 9 10 11 11 10 9 10 9 6 4 4 4 5 5 5 5 5
7 5 2 3 4 4 4 5 5 5 5 4 3 3 2 3 3 3 4 3 4 3 3 3 3 6 11 12 11 10 10 10 11 11 7 3 4 4 4 5 5 5 6
7 6 3 3 3 4 3 4 5 5 5 4 4 4 3 4 4 4 4 3 3 3 3 4 4 7 10 10 8 9 10 12 13 12 7 6 5 5 4 4 6 5 6
Wind_Direction
52 60 64 63 60 57 57 51 31 335 303 282 270 257 240 230 223 203 210 214 235 258 216 212 220 217 213 215 226 231 230 214 229 252 232 213 188 181 170 211 214 197 203
41 48 50 44 37 16 336 287 272 268 268 271 268 268 258 225 212 183 189 205 226 261 269 253 222 202 206 218 219 230 235 227 219 240 239 218 213 206 183 212 221 206 200
24 22 18 3 336 309 293 279 270 270 268 262 255 257 268 264 149 152 178 202 227 239 249 265 275 231 198 211 223 237 241 247 227 226 239 226 225 226 218 233 246 246 233
3 8 16 3 324 305 306 305 304 298 290 305 322 306 310 26 20 350 285 223 235 243 239 232 232 196 94 61 30 3 295 262 246 231 238 232 223 217 193 217 245 247 247
39 30 23 22 24 18 20 13 16 18 20 19 17 18 25 39 26 14 354 327 283 269 262 259 123 104 103 93 64 19 358 320 272 237 238 231 209 182 203 205 219 248 260
46 40 34 35 34 36 38 35 37 39 35 33 32 41 46 35 18 15 1 333 318 300 280 255 145 153 150 159 177 208 264 330 351 350 165 217 240 208 188 173 192 196 254
46 46 41 37 36 32 33 33 41 51 50 43 37 45 55 31 17 9 357 321 301 299 291 277 225 147 165 194 202 215 223 221 234 349 15 140 222 186 159 162 187 190 206
41 39 47 39 33 29 32 37 29 33 54 56 37 31 50 36 18 8 355 321 297 304 306 306 307 161 135 41 124 223 208 185 204 216 57 66 71 80 112 143 150 126 37
40 33 32 36 31 26 26 32 33 26 37 56 43 32 35 33 20 14 6 345 353 344 335 12 31 60 56 40 12 1 51 94 113 92 93 93 85 75 70 74 81 86 307
31 33 25 21 25 28 25 23 25 21 21 60 60 45 38 34 25 21 15 10 6 355 349 45 67 69 59 34 14 24 54 43 67 134 135 142 148 141 115 77 108 117 314
41 33 21 6 17 44 32 27 25 23 18 28 49 50 48 39 22 17 13 13 357 348 357 25 53 50 45 33 21 36 50 2 358 53 99 100 77 91 136 166 124 138 137
127 77 24 30 31 38 44 44 33 18 23 22 26 27 21 28 28 5 359 357 345 336 342 10 37 17 2 347 353 31 8 350 330 62 95 96 87 73 65 96 109 117 113
106 96 44 77 79 49 44 45 39 29 27 24 19 16 14 23 17 8 1 360 354 340 326 331 319 324 327 310 261 270 296 283 289 93 104 102 96 91 68 48 44 59 76
72 76 75 69 83 77 51 46 44 30 23 20 18 12 11 23 14 3 356 354 353 355 352 339 311 312 312 311 300 232 242 255 97 107 111 104 91 75 60 53 48 42 65
41 82 86 78 77 88 73 47 50 59 43 21 6 5 14 13 359 356 7 7 2 6 8 19 27 24 23 26 36 47 62 75 71 73 82 80 76 75 59 44 38 35 51
47 72 72 81 78 109 119 92 49 61 55 47 37 30 52 23 3 13 19 20 23 27 39 39 37 34 35 38 41 44 51 63 68 71 70 70 68 67 61 42 37 46 49
54 67 68 63 60 73 118 141 138 94 34 31 37 45 41 23 21 20 26 32 32 37 46 42 39 37 36 37 41 46 48 48 55 60 59 53 55 56 57 52 41 37 35
96 94 95 98 72 69 68 82 111 138 148 163 99 45 38 30 25 23 30 41 37 38 41 39 37 36 37 37 37 40 43 42 45 47 46 43 44 51 51 51 49 35 28
61 74 65 87 92 92 88 85 81 79 83 76 75 51 354 7 20 29 33 42 44 41 38 36 29 28 31 33 33 37 43 44 43 43 39 37 37 45 46 45 47 40 36
92 71 39 37 130 112 91 92 88 77 76 72 55 27 4 23 33 29 30 33 40 45 43 41 34 30 28 27 29 32 40 41 36 39 32 28 29 37 40 42 42 40 32
146 133 177 273 121 96 90 98 103 94 90 91 85 43 3 20 36 35 34 33 40 49 54 49 40 30 28 26 29 36 42 39 31 26 25 20 23 27 29 37 35 42 35
298 164 191 149 101 84 83 101 109 112 115 121 140 143 36 46 48 44 45 44 44 56 62 62 45 30 28 35 37 37 44 40 26 13 12 13 19 26 36 39 34 43 41
306 149 147 128 125 131 192 151 129 126 124 128 134 135 124 87 77 71 68 67 63 59 57 48 36 25 40 46 52 45 37 16 357 357 8 20 24 31 43 42 41 47 49
309 288 178 155 162 174 189 159 144 143 144 145 143 148 145 133 110 95 87 78 77 78 78 57 27 46 65 61 60 54 38 20 10 1 4 28 35 37 48 51 46 37 36
288 277 218 196 182 181 184 161 155 158 161 164 162 160 155 137 123 116 115 110 105 102 93 84 56 60 74 70 59 44 33 28 22 8 358 31 54 58 69 65 60 56 50
282 277 237 210 186 183 188 175 170 166 163 164 165 164 160 146 137 129 116 113 120 116 102 90 76 84 91 78 55 39 31 26 18 16 37 63 58 43 60 73 75 69 72
Height
1495 1495 1496 1496 1497 1498 1499 1500 1502 1503 1504 1506 1508 1510 1511 1513 1516 1517 1519 1521 1522 1523 1523 1523 1524 1524 1525 1525 1525 1525 1526 1527 1527 1528 1530 1531 1532 1533 1534 1535 1536 1537 1538
1501 1501 1501 1502 1502 1503 1504 1504 1505 1506 1506 1507 1508 1509 1511 1512 1513 1515 1517 1519 1519 1520 1521 1522 1522 1522 1522 1522 1522 1522 1522 1523 1524 1524 1525 1526 1528 1529 1530 1531 1532 1533 1534
1506 1506 1506 1506 1506 1507 1507 1507 1507 1508 1508 1509 1509 1509 1511 1512 1513 1514 1515 1516 1517 1518 1519 1520 1520 1520 1520 1520 1520 1519 1519 1519 1519 1520 1521 1522 1523 1525 1526 1527 1529 1530 1531
1509 1509 1509 1509 1509 1509 1509 1509 1509 1509 1509 1509 1509 1510 1510 1511 1511 1512 1513 1514 1515 1516 1516 1517 1518 1518 1518 1518 1517 1516 1516 1516 1516 1516 1517 1518 1519 1520 1522 1523 1524 1526 1527
1513 1512 1511 1510 1510 1510 1510 1509 1509 1509 1509 1509 1509 1509 1509 1509 1509 1510 1511 1512 1513 1513 1514 1515 1515 1516 1516 1516 1516 1515 1514 1513 1513 1513 1514 1515 1515 1516 1517 1519 1520 1522 1523
1516 1515 1513 1513 1512 1511 1511 1510 1510 1509 1509 1508 1508 1508 1508 1508 1508 1508 1509 1509 1510 1511 1511 1512 1513 1513 1514 1515 1514 1514 1514 1513 1512 1512 1512 1512 1513 1513 1514 1515 1517 1518 1519
1520 1519 1517 1516 1515 1514 1513 1512 1511 1510 1509 1508 1508 1507 1507 1506 1506 1506 1506 1507 1507 1508 1509 1510 1510 1511 1512 1513 1513 1514 1514 1513 1513 1513 1512 1511 1511 1511 1511 1512 1514 1515 1516
1525 1523 1522 1520 1518 1517 1516 1514 1513 1512 1511 1509 1508 1508 1507 1506 1505 1504 1504 1504 1505 1506 1506 1507 1508 1509 1510 1511 1512 1513 1513 1513 1513 1513 1512 1511 1511 1511 1511 1512 1513 1514 1514
1528 1527 1525 1523 1522 1520 1518 1517 1515 1513 1512 1511 1510 1509 1508 1506 1505 1504 1503 1503 1503 1503 1504 1504 1505 1505 1507 1509 1510 1511 1512 1512 1513 1513 1512 1512 1511 1511 1511 1511 1512 1513 1514
1532 1530 1528 1526 1524 1522 1520 1518 1516 1515 1514 1513 1512 1510 1509 1508 1506 1505 1503 1502 1502 1501 1502 1502 1502 1503 1504 1506 1508 1509 1510 1511 1512 1512 1512 1512 1511 1511 1511 1511 1512 1512 1513
1534 1532 1530 1528 1526 1524 1522 1520 1518 1517 1516 1515 1514 1513 1512 1510 1508 1506 1504 1502 1500 1500 1499 1499 1500 1501 1502 1504 1505 1507 1508 1510 1510 1511 1511 1511 1511 1511 1511 1512 1512 1512 1513
1535 1533 1532 1530 1528 1526 1524 1522 1520 1519 1518 1517 1517 1516 1514 1512 1510 1507 1504 1502 1500 1499 1498 1498 1498 1499 1500 1501 1503 1505 1506 1508 1509 1510 1510 1511 1511 1512 1512 1512 1512 1513 1513
1537 1536 1534 1532 1530 1528 1526 1524 1522 1521 1520 1519 1519 1517 1516 1514 1511 1508 1505 1502 1500 1498 1497 1496 1496 1497 1498 1499 1501 1503 1505 1506 1508 1509 1510 1510 1511 1512 1512 1512 1513 1513 1513
1538 1537 1535 1534 1532 1530 1528 1526 1524 1523 1522 1521 1520 1519 1517 1515 1512 1508 1505 1502 1500 1498 1497 1496 1496 1496 1497 1498 1500 1501 1503 1505 1507 1508 1509 1510 1511 1512 1513 1513 1513 1514 1513
1539 1538 1536 1535 1533 1532 1530 1528 1527 1526 1525 1524 1522 1520 1518 1516 1513 1510 1507 1504 1501 1499 1498 1497 1497 1497 1498 1499 1500 1502 1503 1505 1507 1508 1509 1511 1512 1513 1513 1514 1514 1514 1513
1540 1539 1538 1536 1535 1534 1532 1531 1530 1528 1527 1526 1524 1522 1520 1518 1516 1513 1511 1508 1505 1504 1502 1500 1500 1500 1500 1501 1502 1503 1504 1506 1508 1509 1511 1512 1513 1513 1513 1514 1514 1513 1513
1540 1539 1538 1538 1537 1536 1534 1533 1532 1531 1530 1528 1527 1525 1523 1521 1519 1517 1514 1512 1510 1508 1506 1505 1505 1505 1505 1505 1506 1506 1507 1509 1510 1511 1512 1513 1513 1513 1513 1513 1513 1513 1513
1541 1540 1539 1538 1538 1537 1536 1535 1534 1533 1532 1531 1529 1528 1526 1524 1522 1520 1518 1516 1514 1512 1510 1510 1509 1509 1509 1509 1509 1510 1511 1511 1512 1513 1513 1513 1513 1513 1513 1513 1513 1512 1512
1541 1541 1540 1539 1539 1539 1538 1537 1536 1535 1534 1533 1531 1530 1528 1526 1525 1523 1521 1519 1517 1515 1514 1513 1513 1512 1512 1512 1512 1512 1513 1513 1513 1513 1513 1513 1513 1513 1513 1513 1513 1512 1512
1542 1541 1540 1540 1540 1540 1539 1538 1537 1536 1535 1534 1533 1531 1530 1528 1527 1525 1523 1521 1519 1518 1516 1515 1515 1514 1514 1513 1513 1513 1513 1513 1513 1513 1513 1513 1513 1513 1513 1513 1512 1512 1511
1542 1541 1541 1540 1541 1540 1540 1539 1538 1537 1536 1535 1534 1533 1531 1530 1529 1527 1525 1523 1521 1520 1518 1517 1516 1515 1514 1514 1513 1513 1512 1512 1512 1513 1513 1513 1513 1513 1513 1513 1512 1511 1510
1543 1542 1541 1541 1541 1540 1540 1539 1539 1538 1537 1536 1535 1534 1533 1532 1531 1529 1527 1525 1523 1522 1520 1519 1517 1516 1515 1514 1513 1513 1512 1511 1511 1512 1512 1513 1513 1513 1513 1513 1512 1511 1510
1542 1543 1542 1541 1540 1540 1540 1539 1539 1538 1538 1537 1536 1536 1535 1533 1532 1530 1529 1527 1525 1524 1522 1521 1520 1518 1517 1516 1515 1513 1512 1512 1512 1512 1513 1513 1513 1513 1513 1512 1511 1511 1510
1540 1541 1541 1540 1540 1539 1539 1539 1538 1538 1537 1537 1536 1536 1535 1534 1533 1532 1530 1529 1527 1526 1525 1523 1522 1521 1519 1518 1516 1515 1514 1513 1513 1513 1513 1513 1513 1513 1513 1512 1512 1511 1510
1538 1539 1539 1539 1539 1539 1539 1538 1538 1537 1537 1536 1536 1535 1535 1534 1533 1532 1531 1530 1529 1528 1526 1525 1524 1523 1522 1520 1518 1517 1516 1515 1515 1515 1514 1514 1514 1514 1514 1513 1513 1512 1511
1535 1536 1537 1537 1537 1537 1537 1537 1537 1536 1536 1535 1535 1534 1534 1534 1533 1532 1531 1530 1530 1529 1528 1527 1526 1525 1523 1522 1520 1519 1518 1517 1517 1517 1516 1516 1516 1515 1515 1515 1514 1514 1513